Silver Shadow — C6FN6 — position and weather

sailwx.info

Track history (hours):
 
Tides and Currents Weather Stations Pressure Air Temp Water Temp Dewpoint Dewpoint Depression Visibility Wind Speed Wind Dir Waves Ship Positions

Silver Shadow

Operator: V Ships Leisure SAM

Last reported at 2017-Aug-17 03:30 UTC. Time now 2017-Aug-17 03:39 UTC.
Position N 50°07' W 125°21'.

Length 186 m; draft 6.1 m.

Type: Ship. MMSI: 308628000.

Date/timePositionNaut miles runAvg speedWind from/ knotsBaromVisibWave heightAir tempDewpointWater temp
2017-Aug-17 03:30N 50°07' W 125°21'612.6
2017-Aug-17 03:00N 50°13' W 125°23'714.4
2017-Aug-17 02:30N 50°20' W 125°27'714.4
2017-Aug-17 02:00N 50°22' W 125°38'1314.7
2017-Aug-17 01:07N 50°25' W 125°58'1614.5
2017-Aug-17 00:01N 50°30' W 126°22'415.0
2017-Aug-16 23:47N 50°30' W 126°27'1313.1
2017-Aug-16 22:47N 50°37' W 126°45'414.3
2017-Aug-16 22:29N 50°39' W 126°50'815.4
2017-Aug-16 21:59N 50°43' W 127°01'715.6
2017-Aug-16 21:30N 50°45' W 127°12'815.6
2017-Aug-16 21:00N 50°48' W 127°23'815.7
2017-Aug-16 20:30N 50°52' W 127°34'815.5
2017-Aug-16 20:00N 50°57' W 127°44'713.4
2017-Aug-16 19:31N 51°01' W 127°52'714.3
2017-Aug-16 19:00N 51°05' W 128°02'713.9
2017-Aug-16 18:30N 51°09' W 128°10'713.9
2017-Aug-16 18:00N 51°13' W 128°19'714.0
2017-Aug-16 17:31N 51°18' W 128°28'714.1
2017-Aug-16 17:00N 51°22' W 128°37'714.0
2017-Aug-16 16:30N 51°26' W 128°46'714.0
2017-Aug-16 16:00N 51°30' W 128°56'714.0
2017-Aug-16 15:30N 51°34' W 129°05'816.2
2017-Aug-16 15:00N 51°38' W 129°16'816.1
2017-Aug-16 14:30N 51°43' W 129°27'  
2017-Aug-13 10:00N 58°12' W 135°26'814.9
2017-Aug-13 09:29N 58°16' W 135°38'714.6
2017-Aug-13 09:00N 58°19' W 135°50'714.5
2017-Aug-13 08:31N 58°20' W 136°04'121 4.2
2017-Aug-12 03:27N 59°14' W 139°33'  
2017-Aug-08 08:06N 58°19' W 136°13'218.1
2017-Aug-08 08:00N 58°19' W 136°10'816.5
2017-Aug-08 07:30N 58°19' W 135°54'917.7
2017-Aug-08 07:00N 58°17' W 135°38'  
Track history (hours):
 
Tides and Currents Weather Stations Pressure Air Temp Water Temp Dewpoint Dewpoint Depression Visibility Wind Speed Wind Dir Waves Ship Positions

Silver Shadow

Operator: V Ships Leisure SAM

Last reported at 2017-Aug-17 03:30 UTC. Time now 2017-Aug-17 03:39 UTC.
Position N 50°07' W 125°21'.

Length 186 m; draft 6.1 m.

Type: Ship. MMSI: 308628000.

Date/timePositionNaut miles runAvg speedWind from/ knotsBaromVisibWave heightAir tempDewpointWater temp
2017-Aug-17 03:30N 50°07' W 125°21'612.6
2017-Aug-17 03:00N 50°13' W 125°23'714.4
2017-Aug-17 02:30N 50°20' W 125°27'714.4
2017-Aug-17 02:00N 50°22' W 125°38'1314.7
2017-Aug-17 01:07N 50°25' W 125°58'1614.5
2017-Aug-17 00:01N 50°30' W 126°22'415.0
2017-Aug-16 23:47N 50°30' W 126°27'1313.1
2017-Aug-16 22:47N 50°37' W 126°45'414.3
2017-Aug-16 22:29N 50°39' W 126°50'815.4
2017-Aug-16 21:59N 50°43' W 127°01'715.6
2017-Aug-16 21:30N 50°45' W 127°12'815.6
2017-Aug-16 21:00N 50°48' W 127°23'815.7
2017-Aug-16 20:30N 50°52' W 127°34'815.5
2017-Aug-16 20:00N 50°57' W 127°44'713.4
2017-Aug-16 19:31N 51°01' W 127°52'714.3
2017-Aug-16 19:00N 51°05' W 128°02'713.9
2017-Aug-16 18:30N 51°09' W 128°10'713.9
2017-Aug-16 18:00N 51°13' W 128°19'714.0
2017-Aug-16 17:31N 51°18' W 128°28'714.1
2017-Aug-16 17:00N 51°22' W 128°37'714.0
2017-Aug-16 16:30N 51°26' W 128°46'714.0
2017-Aug-16 16:00N 51°30' W 128°56'714.0
2017-Aug-16 15:30N 51°34' W 129°05'816.2
2017-Aug-16 15:00N 51°38' W 129°16'816.1
2017-Aug-16 14:30N 51°43' W 129°27'  
2017-Aug-13 10:00N 58°12' W 135°26'814.9
2017-Aug-13 09:29N 58°16' W 135°38'714.6
2017-Aug-13 09:00N 58°19' W 135°50'714.5
2017-Aug-13 08:31N 58°20' W 136°04'121 4.2
2017-Aug-12 03:27N 59°14' W 139°33'  
2017-Aug-08 08:06N 58°19' W 136°13'218.1
2017-Aug-08 08:00N 58°19' W 136°10'816.5
2017-Aug-08 07:30N 58°19' W 135°54'917.7
2017-Aug-08 07:00N 58°17' W 135°38'  

Dump ship's entire track history